SCP
3 2 2 1 1 0 0 0 0 0 0 0 0 1 1 1 0 0 0 0 0 0 1 1 1 1 1 1 1 1 0 0 0 0 0 0 0 0 0 1 1 1 1
3 2 1 1 1 0 0 0 0 0 0 0 0 0 0 0 0 0 0 0 0 0 0 1 1 1 1 1 1 0 0 0 0 0 0 0 0 0 0 0 1 1 1
3 2 1 1 1 1 1 0 0 0 0 0 0 0 0 0 0 0 0 0 0 0 0 0 1 1 0 0 0 0 0 0 0 0 0 0 0 0 0 0 0 1 1
2 1 1 1 1 1 1 1 0 0 0 0 0 0 0 0 0 0 0 0 0 0 0 0 0 0 0 0 0 0 0 0 0 0 0 0 0 0 0 0 0 1 1
1 1 1 1 1 1 1 1 0 0 0 0 0 0 0 0 0 0 0 0 0 0 0 0 0 0 0 0 0 0 0 0 0 0 0 0 0 0 0 0 0 0 1
0 0 1 1 1 1 1 1 1 0 0 0 0 0 0 0 0 0 0 0 0 0 0 0 0 0 0 0 0 0 0 0 0 0 0 0 0 0 0 0 0 0 0
0 0 0 1 1 1 1 1 1 0 0 0 0 0 0 0 0 0 0 0 0 0 0 0 0 0 0 0 0 0 0 0 0 0 0 0 0 0 0 0 0 0 0
0 0 0 0 1 1 1 1 1 1 0 0 0 0 0 0 0 0 0 0 0 0 0 0 0 0 0 0 0 0 0 0 0 0 0 0 0 0 0 0 0 0 0
0 0 0 0 1 1 1 1 1 1 0 0 0 0 0 0 0 0 0 0 0 0 0 0 0 0 0 0 0 0 0 0 0 0 1 1 1 0 0 0 0 0 0
0 0 0 0 0 1 1 1 1 1 1 0 0 0 0 0 0 0 0 0 0 0 0 0 0 0 0 0 0 0 0 0 0 0 0 1 1 1 0 0 0 0 0
0 0 0 0 1 0 0 1 1 1 1 0 0 0 0 0 0 0 0 0 0 0 0 0 0 0 0 0 0 0 0 0 0 0 0 0 0 1 1 1 1 0 0
0 0 0 1 1 1 1 1 1 1 1 0 0 0 0 0 0 0 0 0 0 0 0 0 0 0 0 0 0 0 0 0 0 0 0 0 0 0 1 1 1 1 1
0 0 1 1 1 1 1 1 1 1 1 0 0 0 0 0 0 0 0 0 0 0 0 0 0 0 0 0 0 0 0 0 0 0 0 0 0 0 0 1 1 1 1
1 0 1 1 1 1 1 1 1 1 1 1 0 0 0 0 0 0 0 0 0 0 0 0 0 0 0 0 0 0 0 0 0 0 0 0 0 0 0 0 1 1 1
1 1 1 1 1 1 1 1 1 1 1 1 0 0 0 0 0 0 0 0 0 0 0 0 0 0 0 0 0 0 0 0 0 0 0 0 0 0 0 0 1 1 1
0 0 1 1 2 1 1 1 1 1 1 1 1 0 0 0 0 0 0 0 0 0 0 0 0 0 0 0 0 0 0 0 0 0 0 0 0 0 0 0 1 1 1
0 0 1 1 2 2 1 1 1 1 1 1 1 1 0 0 0 0 0 0 0 0 0 0 0 0 0 0 0 0 0 0 0 0 0 0 0 0 0 0 0 1 1
0 0 1 2 2 2 1 1 1 1 1 1 1 1 0 0 0 0 0 0 0 0 0 0 0 0 0 0 0 0 0 0 0 0 0 0 0 0 0 0 0 0 0
0 1 1 2 2 2 1 1 1 1 1 1 1 1 0 0 0 0 0 0 0 0 0 0 0 0 0 0 0 0 0 0 0 0 0 0 0 0 0 0 0 0 0
0 0 1 1 1 1 1 1 1 1 1 1 1 1 0 0 0 0 0 0 0 0 0 0 0 0 0 0 0 0 0 0 0 0 0 0 0 0 0 0 0 0 0
0 0 0 0 1 1 0 0 1 1 1 1 1 0 0 0 0 0 0 0 0 0 0 0 0 0 0 0 0 0 0 0 0 0 0 0 0 0 0 0 0 0 0
0 0 0 0 0 0 0 0 1 1 1 1 1 0 0 0 0 0 0 0 0 0 0 0 0 0 0 0 0 0 0 0 0 0 0 0 0 0 0 0 0 0 0
0 0 0 0 0 0 0 0 0 1 1 1 0 0 0 0 0 0 0 0 0 0 0 0 0 0 0 0 0 0 0 0 0 0 0 0 0 0 0 0 0 0 0
0 0 0 0 0 0 0 0 0 1 1 0 0 0 0 0 0 0 0 0 0 0 0 0 0 0 0 0 0 0 0 0 0 0 0 0 0 0 0 0 0 0 0
0 0 0 0 0 0 0 0 0 0 0 0 0 0 0 0 0 0 0 0 0 0 0 0 0 0 0 0 0 0 0 0 0 0 0 0 0 0 0 0 0 0 0
0 0 0 0 0 0 0 0 0 0 0 0 0 0 0 0 0 0 0 0 0 0 0 0 0 0 0 0 0 0 0 0 0 0 0 0 0 0 0 0 0 0 0
Wind_Speed
2 2 2 2 2 1 1 1 1 1 2 2 2 3 3 3 2 2 2 4 5 5 5 4 5 5 5 5 5 5 5 5 5 6 6 6 6 6 6 6 5 5 4
2 2 2 2 1 1 1 1 2 2 2 2 3 3 2 2 2 2 2 3 5 5 4 4 4 4 5 5 5 5 5 5 5 5 5 5 5 5 5 5 5 5 4
2 2 2 2 1 2 2 2 2 2 2 2 3 2 2 2 2 2 2 2 2 4 4 4 4 4 4 4 5 4 4 5 5 5 5 4 4 4 5 5 5 5 4
2 2 2 2 1 2 2 2 2 2 2 2 2 2 2 1 2 2 2 2 2 2 3 4 4 4 4 4 4 4 4 4 4 4 5 5 5 4 5 5 5 5 4
2 2 2 2 2 2 2 2 2 2 2 2 2 2 1 1 1 2 2 2 2 2 2 3 4 4 4 4 4 4 4 4 4 4 4 4 5 5 5 6 6 6 5
2 2 2 2 2 2 2 2 2 2 2 2 2 2 1 1 1 1 1 2 1 2 2 2 2 3 4 4 4 4 4 4 4 4 4 4 5 5 6 6 6 6 6
2 2 2 2 1 2 1 2 2 3 2 1 2 1 1 1 1 1 1 1 1 1 2 2 2 1 2 4 4 4 4 4 3 4 4 4 5 5 5 6 7 7 7
3 2 2 1 2 2 2 2 2 2 1 1 1 1 0 1 0 0 0 0 0 1 1 1 1 1 1 1 3 5 4 4 4 4 4 4 4 5 5 6 7 7 7
3 2 2 2 2 2 2 2 2 3 2 1 1 2 2 2 0 1 1 1 1 0 0 0 1 1 1 1 1 4 5 5 5 6 5 5 5 5 5 6 6 7 8
2 2 2 2 2 1 2 2 1 1 2 2 1 0 1 2 2 0 1 0 1 0 0 0 0 0 0 1 1 3 4 5 6 6 6 6 6 6 6 7 7 7 8
2 2 2 2 2 1 2 2 1 1 1 2 1 1 0 0 1 1 2 1 1 1 1 1 0 0 0 0 0 2 3 4 5 6 6 6 6 7 7 7 8 8 9
1 2 1 1 1 1 1 2 2 2 1 1 1 1 1 1 2 2 2 2 2 2 1 1 1 1 1 1 1 2 3 4 6 6 6 6 6 7 7 8 8 9 9
1 1 1 1 1 1 1 1 2 2 2 2 2 1 1 1 1 1 2 2 2 2 2 1 2 2 1 1 1 3 4 5 5 6 6 6 7 7 8 8 9 9 10
1 1 1 1 0 0 0 1 1 1 1 2 2 2 1 1 1 1 1 2 2 3 2 3 1 2 2 1 3 4 3 5 6 7 7 7 7 7 8 9 9 9 10
1 1 1 1 0 0 0 0 1 1 1 1 2 2 1 1 1 1 1 2 3 4 4 2 1 2 2 2 4 3 3 5 7 8 8 8 8 8 8 9 10 10 10
1 1 1 1 1 0 0 0 1 1 1 1 1 1 2 2 1 1 2 2 2 3 4 2 2 2 2 2 4 3 3 7 7 8 9 9 9 9 9 9 10 10 10
1 1 1 1 1 1 1 1 1 1 1 1 1 2 2 2 2 2 2 2 2 2 4 3 2 2 2 3 3 3 3 4 4 8 9 10 10 10 10 10 10 10 11
0 1 1 1 1 1 1 1 2 1 2 2 2 2 3 2 2 2 2 3 3 3 4 5 3 2 3 3 3 3 4 3 4 7 9 10 11 10 10 10 10 11 10
0 1 1 1 1 1 2 2 2 2 2 3 3 3 3 3 3 3 3 3 3 3 3 3 4 2 2 2 3 3 3 3 4 6 8 10 10 10 10 10 10 10 10
1 1 1 2 2 2 2 2 2 2 2 3 3 3 4 4 4 4 3 3 3 3 3 3 3 3 2 2 2 3 4 3 4 4 7 8 8 9 9 10 10 10 10
1 1 1 2 2 2 2 3 3 3 3 3 3 3 4 4 5 5 4 3 3 3 3 3 4 3 3 2 3 3 4 4 4 3 4 4 4 4 5 8 10 10 11
2 2 2 2 2 2 3 4 4 3 3 4 4 4 4 4 5 7 7 6 6 5 5 4 4 5 5 4 3 3 4 4 5 3 3 5 4 5 5 4 10 12 11
2 2 2 2 3 3 4 5 5 3 3 4 4 4 3 3 4 4 5 7 6 7 7 5 6 6 5 4 4 5 5 5 6 4 3 6 4 5 5 6 12 12 11
2 2 3 3 3 3 4 4 4 3 3 4 4 4 4 4 4 4 4 4 5 5 6 5 5 6 5 4 5 6 6 6 6 4 3 5 4 5 5 5 10 11 11
3 3 3 3 3 4 5 5 4 3 3 4 4 4 4 4 6 6 4 4 5 4 5 7 8 7 7 7 5 3 3 3 6 5 2 3 3 4 5 5 6 9 9
3 3 3 3 4 4 6 6 5 3 3 4 3 4 5 6 7 7 5 5 6 5 4 4 5 6 5 5 6 4 4 4 4 5 2 2 3 3 4 3 3 3 5
Wind_Direction
131 127 123 112 111 106 109 100 88 83 85 77 74 82 83 73 70 77 69 65 65 64 64 71 69 67 63 60 57 57 53 48 49 46 41 39 36 34 34 31 27 24 26
137 137 128 114 107 107 102 100 98 93 92 83 70 69 83 84 74 78 86 72 64 60 53 62 67 64 60 57 52 55 51 43 42 41 37 32 29 24 20 18 17 11 9
124 123 122 120 121 116 110 100 89 87 91 88 81 72 71 77 79 76 80 81 74 55 47 56 59 56 56 53 48 47 46 40 36 33 27 20 18 14 7 2 359 355 347
124 122 123 127 124 119 119 117 108 99 94 92 86 75 74 77 77 79 78 75 74 66 48 48 49 45 45 44 40 36 38 37 31 26 23 17 10 3 358 355 346 335 330
125 120 125 130 130 123 121 119 109 113 106 96 92 79 71 62 76 76 83 77 62 69 72 51 42 39 35 30 24 21 21 22 19 16 14 12 7 1 355 346 342 334 318
121 117 121 128 128 124 121 118 118 111 118 114 94 76 76 91 90 89 95 85 69 63 64 56 47 32 31 24 14 9 8 4 10 7 2 359 357 352 348 345 341 336 327
120 122 123 130 124 126 131 135 133 126 122 119 103 81 45 87 119 119 97 99 96 72 64 56 53 49 21 13 10 359 358 353 355 356 351 345 342 343 343 342 339 335 328
125 128 131 137 137 138 140 140 139 142 144 140 139 135 162 332 355 30 72 95 99 80 69 51 47 48 33 20 11 0 352 348 344 337 331 325 328 329 331 330 334 332 332
119 123 138 138 144 151 162 157 151 154 168 184 155 155 166 206 226 243 207 179 136 94 103 59 36 28 32 36 13 357 354 345 340 331 321 318 320 323 330 328 330 332 328
113 128 135 140 145 147 151 165 156 163 163 182 215 277 182 154 157 233 286 248 199 217 260 338 13 5 41 44 20 357 345 342 337 331 322 317 317 319 320 320 319 320 319
87 96 111 126 141 153 163 163 163 156 165 183 189 189 211 236 194 195 244 247 272 250 217 214 239 243 241 273 294 350 342 331 327 323 317 315 312 311 311 312 313 311 311
85 70 84 115 128 144 170 178 177 175 179 177 188 182 182 187 201 209 234 242 249 246 227 215 226 229 231 239 273 309 317 316 315 311 307 307 308 307 306 304 304 303 304
101 101 81 91 103 141 161 167 176 181 185 183 197 210 221 245 244 224 225 248 260 254 222 223 224 212 232 230 247 272 287 295 302 303 300 302 304 303 300 298 297 299 301
153 126 119 116 113 130 140 161 167 190 188 192 209 215 222 247 261 251 226 228 265 270 243 231 227 218 231 240 259 270 269 278 286 291 293 293 294 293 294 293 293 295 298
136 125 129 118 112 96 134 182 181 193 191 202 212 216 229 244 241 260 250 223 225 257 262 236 225 225 236 251 267 256 250 269 275 281 283 283 285 287 287 287 288 290 292
127 130 128 132 135 135 208 193 230 204 192 209 209 216 233 241 238 242 241 252 248 246 262 257 243 262 255 270 274 271 258 275 274 277 277 278 280 282 282 282 283 286 287
151 151 159 160 175 203 203 198 238 220 210 229 232 224 239 242 242 246 243 245 251 247 259 275 276 280 262 265 281 273 267 259 261 268 273 276 277 277 277 278 279 283 285
149 177 173 177 194 208 210 208 221 226 224 233 242 244 249 240 242 252 250 250 253 250 249 263 272 276 266 259 263 269 276 278 263 268 273 278 276 274 274 275 277 280 281
332 223 180 192 211 222 224 224 217 222 228 238 240 239 245 237 241 248 247 249 255 262 255 256 268 274 273 274 276 278 279 280 281 276 277 277 275 273 272 272 274 276 276
254 259 216 206 214 227 231 233 226 228 235 245 250 246 246 239 240 244 243 246 249 252 253 252 258 265 268 272 267 273 283 279 282 292 285 279 277 275 273 273 273 272 273
228 232 235 230 226 222 223 227 228 227 233 246 255 256 252 249 251 252 250 245 239 240 243 251 257 265 258 261 256 262 272 286 283 275 283 282 276 265 262 267 271 268 268
237 232 228 230 238 241 246 245 243 235 238 240 246 252 254 249 250 258 262 261 253 244 243 246 254 255 259 263 273 270 273 281 278 264 277 283 280 274 269 254 266 268 268
250 252 250 240 242 249 250 249 254 251 244 245 246 251 258 261 251 247 254 260 261 260 256 249 249 254 258 256 258 266 265 268 269 273 281 282 276 273 278 278 277 270 270
253 256 261 257 256 259 258 257 267 263 257 252 247 244 250 259 261 261 256 256 255 257 258 257 250 254 254 253 247 255 263 277 285 277 261 272 279 275 285 282 280 277 275
262 263 264 261 261 268 262 259 264 258 258 262 265 260 253 254 266 271 263 264 269 266 270 268 273 273 272 273 270 266 267 273 281 280 267 264 281 292 287 274 277 282 286
259 264 270 266 261 261 260 260 262 253 257 264 266 262 258 263 267 271 253 250 260 265 269 278 280 287 282 275 271 249 241 253 273 277 261 266 284 303 295 281 279 288 287